RH
102 98 97 97 100 103 104 104 89 72 80 86 72 56 49 41 28 22 24 22 20 18 16 15 13 11 9 9 10 9 9 10 9 11 17 25 31 34 36 38 42 40
104 102 100 97 98 99 95 100 98 78 69 78 80 71 61 45 33 29 25 25 26 23 21 19 16 16 13 10 9 8 8 9 9 12 17 25 31 33 35 36 40 43
103 102 98 97 97 98 97 101 103 89 76 78 83 83 75 57 43 36 28 24 27 26 24 21 18 18 17 14 12 9 10 9 9 13 18 24 30 32 33 33 35 43
103 102 98 98 97 97 100 101 101 99 95 90 87 88 85 72 59 49 34 23 24 28 28 26 21 18 17 17 15 11 11 10 10 14 20 25 29 31 30 31 33 41
104 102 101 101 99 98 100 100 100 102 102 100 95 92 88 78 71 64 47 30 22 23 27 29 26 18 16 16 15 14 11 11 14 18 21 25 29 30 29 29 32 38
107 102 100 100 99 100 101 99 100 100 100 102 101 101 97 87 78 67 63 66 53 32 26 30 30 22 17 15 14 13 13 16 21 23 23 25 28 30 29 29 33 36
107 98 92 96 99 100 102 101 101 100 100 101 101 104 103 101 94 77 78 98 83 43 28 31 33 28 19 19 19 17 21 28 29 27 24 26 30 30 30 31 35 36
102 96 91 98 102 101 102 102 101 101 100 101 101 102 101 104 106 97 97 102 71 33 31 42 48 46 35 29 27 25 30 35 33 30 28 30 32 31 31 34 36 36
103 100 97 101 102 99 97 94 97 101 100 102 102 102 100 98 100 102 105 103 70 33 32 43 47 55 58 48 36 30 34 36 33 34 37 37 34 29 30 33 34 34
104 105 102 100 100 99 95 91 96 100 98 102 104 102 102 94 88 92 98 103 84 44 31 42 44 47 57 53 41 32 31 34 33 39 48 44 33 31 33 32 32 33
98 99 101 102 101 100 99 96 99 100 98 103 105 103 104 94 80 79 82 95 95 59 34 46 59 63 64 62 64 55 37 31 34 41 53 46 35 44 53 50 44 38
98 94 95 99 100 98 97 97 99 101 100 103 103 100 103 99 86 75 69 81 97 80 52 49 62 73 71 69 82 76 47 35 37 41 49 45 44 61 72 72 69 56
95 98 94 93 95 92 89 94 100 101 100 102 102 99 100 101 96 83 71 79 98 99 83 72 74 81 75 64 63 58 45 38 34 38 47 45 48 66 75 77 76 67
72 89 96 93 91 86 85 97 105 102 102 102 100 99 101 104 101 89 81 89 102 104 97 90 89 94 93 81 61 43 40 40 30 33 48 49 48 59 69 73 72 68
53 68 89 99 94 85 86 99 106 102 102 103 99 101 105 103 93 84 87 97 101 101 101 99 98 99 99 100 85 54 33 30 27 32 48 56 55 54 57 61 63 66
62 60 79 99 101 91 89 98 103 99 99 100 99 102 101 90 76 68 76 95 102 100 102 101 101 101 98 101 104 82 50 30 24 31 48 64 73 68 58 54 53 59
77 69 73 89 101 99 95 99 101 98 98 96 92 92 91 87 81 70 69 85 98 98 100 100 99 101 99 100 106 101 83 58 32 26 42 63 78 81 73 64 56 54
74 74 73 81 96 102 99 100 102 101 100 97 87 80 80 88 98 95 85 89 96 92 92 97 100 100 100 102 103 98 91 79 52 29 33 51 66 77 80 74 66 61
61 68 72 78 92 103 102 100 101 100 99 100 94 82 75 81 98 107 100 98 102 94 85 92 100 101 99 101 104 97 84 76 60 38 30 37 46 61 76 83 84 82
47 56 65 71 81 96 102 100 100 100 98 101 102 93 81 76 88 105 105 100 104 99 88 93 101 101 100 100 104 102 82 62 53 44 37 36 36 46 66 83 94 92
35 44 53 61 68 80 92 97 101 102 100 102 104 99 90 79 80 99 108 103 102 100 93 97 101 99 101 103 104 104 89 65 47 39 46 60 59 55 61 73 86 88
24 33 40 47 52 59 70 81 93 100 100 99 99 96 93 86 83 95 108 105 102 101 97 98 100 99 101 102 101 101 99 91 69 43 49 83 96 81 61 53 71 85
14 23 29 33 36 39 44 49 62 79 87 87 90 94 93 88 82 84 94 100 101 101 101 99 99 101 101 101 101 99 98 104 96 67 57 78 96 85 55 40 68 99
8 12 18 21 23 26 29 29 33 47 59 61 70 85 92 86 78 74 78 87 95 101 102 99 98 101 99 95 97 100 99 101 101 91 78 68 62 57 42 31 52 82
7 7 9 12 16 18 20 24 27 32 40 42 47 67 86 85 74 69 70 76 87 96 98 97 98 100 99 94 92 97 102 100 98 102 98 73 46 41 46 41 40 46
7 7 7 7 11 14 14 19 24 29 38 43 41 56 86 92 76 66 68 72 82 92 94 94 97 99 101 99 96 97 100 101 100 103 101 85 63 56 61 59 51 42
Wind_Speed
29 26 24 25 27 29 31 33 30 26 25 23 20 18 16 13 10 8 7 7 9 12 15 18 21 23 25 25 24 23 22 19 17 17 18 18 17 18 18 16 15 13
33 30 28 28 28 30 33 36 34 30 27 25 22 19 17 14 11 9 8 8 8 9 13 17 20 22 24 24 24 23 22 19 17 17 19 18 17 18 17 16 16 14
35 31 30 29 29 31 35 38 37 32 29 27 24 21 19 16 13 12 10 9 9 9 11 14 18 21 23 24 24 23 22 19 18 18 19 18 17 17 17 17 16 15
37 34 33 32 31 34 35 37 38 35 32 30 25 23 22 18 15 13 11 11 10 11 11 12 14 18 21 23 23 23 21 19 18 19 19 18 17 17 17 17 16 15
40 38 36 34 34 36 35 37 41 38 35 33 28 24 23 20 17 14 12 11 11 11 11 12 13 15 18 20 22 22 21 20 19 19 19 18 17 17 17 16 15 15
42 41 37 34 35 38 37 38 41 39 37 36 31 26 24 22 20 18 15 13 12 12 12 12 13 13 15 18 20 21 21 20 20 19 19 18 17 17 17 16 15 15
45 44 40 37 37 39 39 39 40 39 38 37 35 30 26 24 23 21 18 16 15 15 14 14 13 13 14 16 18 20 20 20 20 20 19 18 17 17 17 15 14 14
46 46 43 40 39 41 42 40 40 40 39 39 37 33 29 27 27 25 20 17 18 18 17 17 16 14 14 16 18 19 20 20 20 20 19 18 18 18 18 16 15 13
47 48 47 44 41 42 43 41 40 42 42 40 38 36 33 29 29 29 25 21 20 19 18 18 18 17 17 17 19 19 20 21 21 20 19 19 20 20 18 17 16 14
48 49 51 50 46 44 43 41 40 43 44 41 38 37 36 31 29 30 29 26 22 19 18 19 19 19 19 19 19 19 20 22 21 21 20 20 21 20 19 18 17 16
51 51 52 53 52 50 48 44 42 44 45 43 39 39 38 34 30 30 30 30 25 19 19 21 21 20 20 20 20 20 22 23 22 22 21 21 21 20 19 18 18 18
53 52 53 53 53 52 51 48 44 44 45 44 42 41 39 35 32 31 30 30 27 22 22 23 22 21 21 22 22 23 24 24 25 24 23 22 23 22 20 19 18 19
56 54 53 53 53 52 52 49 45 44 46 46 44 42 40 36 34 33 32 32 30 27 25 24 24 23 22 22 23 24 26 26 27 26 24 24 25 23 21 20 19 19
57 56 55 54 53 53 53 50 45 44 46 47 45 43 40 38 36 35 34 34 34 32 29 27 27 26 24 23 23 24 25 27 28 27 27 27 27 26 24 23 21 20
56 56 57 57 55 54 56 53 47 45 47 48 46 43 41 39 38 38 37 37 37 35 33 30 30 30 28 26 24 23 25 28 29 28 29 29 29 29 28 26 24 22
58 55 56 57 56 54 57 56 50 47 48 50 48 45 43 42 40 39 40 40 39 37 34 33 33 32 31 29 26 24 25 28 30 30 30 31 31 31 30 30 28 26
62 59 57 57 56 54 56 57 54 50 50 51 51 48 45 44 44 43 42 42 41 39 36 36 36 35 33 31 28 26 26 27 30 33 33 33 33 33 32 31 31 29
67 65 62 59 57 56 57 58 57 55 53 52 51 49 47 47 47 47 46 44 43 41 39 39 40 38 36 34 31 30 29 28 30 33 34 35 35 34 33 32 31 31
70 69 67 64 62 58 56 58 59 58 57 55 53 50 49 49 50 50 49 47 45 43 42 42 43 41 38 37 36 34 33 31 31 32 34 36 37 37 36 34 33 32
75 73 71 69 67 63 57 57 59 59 57 56 56 54 52 52 53 52 50 49 47 47 45 45 45 42 40 40 40 38 35 33 33 33 34 35 37 38 38 38 36 34
82 79 76 74 73 71 65 60 59 59 59 58 59 58 55 55 56 54 52 50 49 49 50 48 46 43 42 42 41 38 35 35 36 36 35 35 36 37 38 38 37 36
84 83 82 79 77 77 75 69 62 59 61 63 63 62 59 57 58 57 54 52 51 51 52 51 48 44 43 43 42 39 36 36 38 38 38 37 37 37 38 38 37 37
80 82 83 83 82 80 80 79 72 65 63 65 67 66 64 61 61 60 57 55 54 53 53 53 51 47 45 45 44 42 39 37 38 39 41 40 39 38 39 40 39 37
76 79 81 82 83 82 81 81 80 75 71 69 69 69 68 65 64 63 60 57 57 55 54 53 52 50 48 47 46 44 42 40 38 39 41 43 41 39 39 41 40 39
73 76 78 79 80 80 79 78 78 77 75 73 71 71 72 69 66 65 63 60 58 57 55 54 54 53 50 49 47 46 45 44 42 40 40 42 43 41 41 42 42 42
70 73 76 77 78 78 77 76 75 73 73 74 72 71 72 72 68 66 65 63 60 58 56 55 56 55 53 50 48 47 47 47 45 43 40 40 41 42 43 44 44 45
Wind_Direction
230 228 227 229 235 240 243 243 243 246 244 238 237 239 246 258 260 259 263 257 242 233 230 229 227 226 227 228 230 231 233 233 234 228 215 208 208 206 205 207 205 203
226 226 225 223 226 233 239 240 238 241 244 240 236 235 238 242 243 243 248 252 251 242 233 230 229 227 227 228 229 232 234 234 233 225 214 211 210 207 208 209 205 204
221 221 222 221 224 230 235 238 237 239 243 240 236 237 237 233 229 230 234 238 244 247 240 235 231 229 229 228 229 231 232 233 231 220 212 212 211 210 212 211 205 205
216 215 218 217 220 226 230 236 237 237 239 238 236 239 242 238 232 228 226 228 234 240 240 238 234 231 229 228 228 229 229 231 226 216 211 213 213 215 216 212 208 207
215 214 219 220 221 223 225 232 235 233 233 233 233 239 246 248 245 238 234 232 232 237 240 239 236 233 228 227 226 225 226 227 220 212 212 214 216 219 219 213 210 209
218 215 217 221 223 223 224 230 232 230 229 229 229 235 245 250 251 252 252 247 239 237 237 235 233 229 225 223 222 221 221 220 215 211 214 218 221 223 218 213 211 209
221 216 216 219 223 223 226 230 231 229 229 227 226 230 236 242 248 254 256 252 243 234 228 227 227 223 220 218 217 218 217 216 214 213 217 222 223 218 213 209 209 208
222 218 218 222 223 223 226 228 228 229 229 226 226 229 231 232 238 244 247 244 237 230 224 224 224 221 219 219 217 217 216 215 216 219 223 224 217 210 206 205 204 205
225 221 221 223 222 221 225 227 226 227 227 226 226 230 231 230 231 233 234 232 233 235 230 222 220 217 216 219 221 218 217 217 219 224 228 223 213 205 202 201 202 201
229 226 223 223 222 223 226 229 226 224 225 224 226 230 233 232 231 231 231 230 233 239 231 219 216 214 213 217 220 221 221 219 220 226 229 222 211 202 198 199 202 203
230 229 226 225 225 226 228 229 228 225 224 222 223 228 232 233 232 233 234 235 236 234 226 222 220 218 216 217 219 222 224 222 221 226 229 221 209 200 198 201 205 207
228 228 227 226 226 227 228 228 227 226 224 221 220 224 228 230 231 232 233 238 240 233 224 222 220 219 220 221 220 221 222 221 220 224 227 220 208 202 202 206 210 211
227 227 226 227 228 227 228 228 227 225 223 220 220 222 224 226 229 231 231 234 238 234 226 221 219 220 225 229 228 225 222 219 218 221 225 220 211 208 208 210 214 215
229 229 228 227 228 227 228 228 227 224 222 220 220 222 223 224 227 230 230 231 234 233 229 223 221 221 224 231 236 233 227 224 220 219 223 222 216 214 214 214 217 220
232 230 228 228 227 227 227 228 228 224 221 219 221 224 224 223 226 229 230 230 231 232 232 228 223 221 221 226 233 234 230 229 226 221 221 223 221 220 219 220 222 225
233 231 228 226 227 227 227 227 226 225 222 220 221 224 223 223 225 228 230 230 229 231 234 233 229 225 223 224 228 230 230 231 230 225 222 223 225 225 225 225 226 228
231 232 230 225 225 227 227 226 224 223 222 222 222 223 221 221 224 227 230 231 229 229 231 233 231 229 228 226 225 227 229 231 232 229 224 223 226 228 228 228 229 229
229 231 231 227 225 226 227 225 224 222 222 222 223 222 220 221 224 225 227 229 230 228 229 231 231 230 229 228 227 227 228 231 234 232 229 227 228 229 229 228 229 231
228 229 230 228 226 226 227 226 225 225 223 224 225 224 222 222 225 227 227 229 230 229 229 232 233 232 230 228 228 228 226 228 232 233 232 232 231 230 229 229 230 233
229 229 229 229 227 227 227 226 226 226 225 226 227 227 226 225 226 228 229 229 230 230 231 233 234 235 234 231 230 229 228 229 231 231 231 233 232 231 230 231 233 237
230 229 229 230 229 228 228 227 226 226 226 226 227 227 227 226 226 228 229 229 229 229 230 232 234 235 235 234 233 233 232 231 232 233 231 231 232 232 231 231 235 239
229 229 229 230 231 231 230 230 229 229 230 230 229 227 226 224 224 227 230 230 230 229 229 230 232 233 234 234 234 235 234 233 234 233 233 233 234 233 232 232 235 240
228 227 228 229 231 232 233 233 232 231 232 233 232 230 227 224 222 225 228 230 231 231 230 229 231 232 231 232 233 235 236 236 236 234 234 237 238 236 233 233 234 238
227 227 227 228 230 232 233 234 233 232 232 233 232 230 229 226 223 224 227 229 231 231 231 231 232 233 232 231 232 234 236 238 238 237 237 238 238 236 235 235 236 239
228 227 226 226 227 229 231 232 233 232 231 231 231 230 229 228 226 225 227 229 230 230 229 230 231 233 233 232 232 234 236 238 239 240 241 240 238 237 237 239 241 242
228 227 226 226 226 227 228 229 230 230 229 229 229 228 227 226 226 226 226 227 228 228 228 228 229 231 233 233 233 235 236 238 239 239 240 240 239 239 240 242 243 243